BREEZE-M DEB (TANK), 42751

Orbit data source: Space-Track

BREEZE-M DEB (TANK), 42751 is space debris in HEO originally from a launch on Thu, 08 Jun 2017 UTC launched from the Tyuratam Missile And Space Complex (TTMTR). Debris objects in space refer to the collection of defunct objects orbiting the Earth. Examples of debris include non-operational satellites, rocket bodies, and fragments generated from explosions, collisions, or faulty payload assembly.

Loading next visibility...
Identifier
42751, 2017-032C
Orbit
HEO
Country
Flag of CISCIS
Related business
Manufacturer
Khrunichev
Mission
Spacecraft
Bus & Motor
BRIZ TANK, Unknown motor
Mass
~1,000 kg wet, 1,000 kg dry
Launch date (UTC)
2017-06-08 (8 years ago)
Launch vehicle
Unknown
Launch site
Tyuratam Missile And Space Complex (TTMTR)
Object type
Payload
Rocket body
Debris
Shape & HBR
Torus, 2.0 m
Radar Cross Section
8.218 m², Large (>1 m²)

Expand to show TLE details & history
Last TLE update: 13 hours ago

TLE from 13 hours ago
0 BREEZE-M DEB (TANK)
1 42751U 17032C   25306.51399648  .00004954  00000-0  84413-3 0  9998
2 42751  49.6946 130.5982 4553970  61.3318 336.9317  6.36483762191640
Epoch: 2025-11-02T12:20Z
TLE epoch observation values (Epoch: 2025-11-02T12:20:09.295Z)
Latitude
-0.00006°
Longitude
-96.47553°
Altitude
1,618.296 km
Speed
8.204 km/s
True Right ascension
08h 42m 22s
True Declination
0° 00' 00"
Sunlit
Object was in daylight at epoch
Visualization orbit readout
Latitude
Unknown
Longitude
Unknown
Altitude
Unknown
Speed
Unknown
Apparent Right ascension
Unknown
Apparent Declination
Unknown
Sunlit
N/A
Visualization observer readout
Local Sidereal Time
21:36:47
Azimuth
Unknown
Elevation
Unknown
Doppler factor
Unknown
Orbital elements
Apogee altitude
11,523.039 km
Perigee altitude
320.403 km
Semi-major axis
12,299.858 km
Eccentricity
0.4554
Inclination
49.6946°
RAAN
130.5982°
Arg. of periapsis
61.3318°
True anomaly
298.8311°
Mean anomaly
336.9317°
Eccentric anomaly
320.24577°
Mean motion
1.59108 °/min
Orbital period
226.26 mins
BSTAR
0.00084413
Loading maneuver chart data...
Computing Atmospheric mass density...
Loading historical data...
Loading historical data...
Loading historical data...
Loading historical data...
Loading historical data...
Loading historical data...
Loading historical data...
Other satellites on launch #32 in the year 2017 (2017-06-08 UTC)

Documentation

Showing up to 5 results
|